Location: Carrières
(48.9495°N, 2.0407°E)
Time: 21:26:43
(UTC+00:00)

Vanguard 2 - Visible Passes

Search period start: 12 April 2024 00:00
Search period end: 22 April 2024 00:00
Orbit: 553 x 2917 km, 32.9° (Epoch: 12 April)

Date Brightness Start Highest point End Pass type
(mag) Time Alt. Az. Time Alt. Az. Time Alt. Az.
12 Apr 11.5 01:28:00 12° SSE 01:33:38 15° SE 01:41:17 10° ESE visible
12 Apr 11.1 03:29:08 11° SSW 03:42:52 31° SSE 03:54:51 10° ESE visible
13 Apr 11.3 01:41:38 16° SSE 01:47:48 19° SE 01:57:56 10° ESE visible
13 Apr 11.0 03:42:46 11° SW 03:57:18 35° SSE 04:09:50 10° ESE visible
14 Apr 11.2 01:55:11 19° S 02:02:01 24° SE 02:13:44 10° ESE visible
14 Apr 10.9 03:56:24 10° SW 04:11:46 39° SSE 04:24:38 10° ESE visible
15 Apr 11.6 00:07:32 10° SE 00:07:40 10° SE 00:09:56 10° ESE visible
15 Apr 11.1 02:08:40 21° S 02:16:16 28° SSE 02:29:06 10° E visible
15 Apr 10.8 04:10:32 10° SW 04:26:15 41° S 04:39:22 10° ESE visible
16 Apr 11.4 00:20:59 15° SE 00:21:39 15° SE 00:29:35 10° ESE visible
16 Apr 11.0 02:22:05 22° SSW 02:30:33 33° SSE 02:44:11 10° E visible
17 Apr 11.2 00:34:20 19° SE 00:35:40 19° SE 00:46:11 10° ESE visible
17 Apr 10.9 02:35:27 22° SSW 02:44:53 37° SSE 02:59:06 10° E visible
18 Apr 11.0 00:47:40 23° SSE 00:49:44 24° SE 01:01:56 10° E visible
18 Apr 10.8 02:48:46 22° SW 02:59:15 40° SSE 03:13:53 10° ESE visible
19 Apr 10.8 01:00:57 27° SSE 01:03:50 28° SSE 01:17:16 10° E visible
19 Apr 10.7 03:02:03 20° SW 03:13:40 43° S 03:28:34 10° ESE visible
19 Apr 11.4 23:13:05 12° ESE 23:13:05 12° ESE 23:16:19 10° ESE visible
20 Apr 10.7 01:14:12 30° S 01:18:01 32° SSE 01:32:20 10° E visible
20 Apr 10.7 03:15:18 17° SW 03:28:06 44° S 03:43:09 10° ESE visible
20 Apr 11.2 23:26:18 17° SE 23:26:18 17° SE 23:33:08 10° ESE visible
21 Apr 10.6 01:27:24 31° S 01:32:15 36° SSE 01:47:13 10° E visible
21 Apr 10.7 03:28:31 14° WSW 03:42:33 45° S 03:57:40 10° ESE visible
21 Apr 11.0 23:39:30 22° SE 23:39:30 22° SE 23:48:58 10° E visible
